Theta_e
331 330 327 325 327 330 330 330 330 327 327 327 327 327 327 326 325 325 326 328 328 329 329 327 327 329 330 330 330 330 330 330 330 329 327 326 325 324 322 320 320 319 318 316 314 313 313 313 311 309 309 308 307 307 306 306 306 306 306 306 306 306 306 306 306 305 305 304 304 305 306 307 309 310 311 311 312 312 313 313 312 312 312 312 312
332 331 330 329 328 328 327 328 329 327 327 328 327 328 328 326 327 327 329 330 329 330 330 329 329 330 330 331 331 330 330 331 330 329 327 326 326 325 323 321 321 321 319 316 314 313 312 311 310 309 308 308 308 309 310 311 312 313 313 313 313 313 314 314 314 313 312 310 309 309 309 310 311 311 312 312 313 313 314 314 313 312 313 313 313
332 332 331 331 330 328 327 327 327 326 327 329 328 328 328 327 327 328 330 329 327 328 329 329 329 330 331 330 331 331 331 331 330 328 327 326 326 326 324 323 322 320 318 316 313 312 311 310 310 310 311 311 313 314 315 316 318 319 319 319 320 320 320 320 321 321 320 318 316 314 313 313 313 313 313 313 314 315 315 314 314 314 313 314 314
332 332 331 332 331 329 327 327 326 325 326 328 328 328 328 328 328 329 328 327 326 326 326 328 331 332 331 330 331 332 332 331 329 328 327 326 326 325 324 324 321 319 316 315 314 312 312 312 313 314 315 316 317 318 320 321 322 323 323 323 323 323 323 323 323 323 324 323 322 320 319 318 317 317 317 316 316 316 315 314 313 313 314 314 314
332 332 331 332 331 328 326 326 326 326 326 325 327 328 327 328 329 329 328 327 327 326 325 328 332 332 330 329 329 330 331 331 329 328 327 326 326 325 324 324 320 318 316 316 315 314 315 315 317 318 319 320 321 322 323 323 324 324 324 324 324 324 324 325 325 326 325 324 323 322 321 322 322 322 321 321 320 319 317 315 314 313 314 314 314
331 331 331 331 330 326 325 327 328 328 327 325 325 327 326 327 328 328 328 328 327 328 328 329 331 330 328 329 329 330 330 330 329 329 328 327 327 325 324 323 320 318 317 317 318 317 318 319 321 322 323 324 324 324 325 325 325 325 325 325 325 325 326 326 326 327 326 323 321 321 320 321 323 323 322 323 323 322 320 317 315 313 314 314 313
330 331 331 330 328 326 326 328 330 330 328 327 326 326 326 327 327 328 329 329 330 330 330 330 330 329 329 330 330 330 330 330 330 329 329 328 327 326 325 322 320 319 318 319 319 320 321 322 323 324 325 326 325 326 326 327 326 326 326 326 326 326 326 326 325 323 321 319 320 321 320 321 322 321 321 322 322 322 322 321 318 315 315 314 312
330 331 330 329 329 328 327 328 330 330 329 328 328 327 327 328 328 329 329 330 331 331 331 330 330 329 330 330 330 330 330 330 330 329 329 328 328 327 325 323 323 323 322 321 320 321 323 324 324 325 326 327 326 326 327 327 327 327 327 327 327 326 324 324 322 319 316 316 319 320 321 322 322 322 321 320 321 320 320 322 321 318 316 313 311
330 330 329 330 331 330 329 328 329 330 329 329 331 329 328 329 330 330 330 330 332 331 330 330 329 330 330 330 330 330 330 330 330 329 329 328 328 327 326 325 325 325 324 323 323 323 324 325 326 326 326 327 327 327 327 327 327 327 328 328 327 324 322 321 319 317 314 314 316 318 320 321 322 322 322 321 321 320 319 320 322 321 317 313 311
330 329 330 332 332 332 331 329 328 330 330 330 332 331 330 330 331 330 329 330 331 330 329 329 329 330 331 330 330 330 330 330 329 329 329 328 328 328 326 325 326 326 324 323 324 324 324 326 326 326 326 326 327 327 327 327 327 327 327 327 326 325 322 320 317 314 312 310 310 312 317 320 321 322 322 322 322 321 320 319 321 322 319 314 311
330 329 330 332 332 331 330 329 328 329 330 330 332 332 331 331 331 331 329 329 331 331 330 330 330 330 330 330 330 330 329 329 329 329 328 328 328 328 327 326 327 326 323 322 323 324 325 326 326 325 325 325 326 327 327 327 327 327 327 326 326 324 321 318 315 310 308 308 307 306 310 316 319 319 321 322 322 322 320 319 322 323 318 312 310
331 329 330 332 332 331 329 328 328 328 329 329 331 331 330 330 331 330 329 329 330 331 331 330 330 330 330 330 330 330 329 329 329 329 328 328 328 328 328 327 327 325 322 321 322 324 325 326 325 323 323 323 324 326 326 327 327 327 326 326 326 322 317 314 310 306 305 306 306 305 305 308 311 315 319 322 323 322 321 320 321 319 314 311 312
331 330 329 331 332 331 330 328 329 329 329 327 328 330 330 330 331 331 330 330 330 330 330 330 330 330 330 330 329 329 329 329 329 328 328 327 327 327 328 327 326 323 320 320 322 325 326 325 323 322 322 322 323 325 326 326 326 326 325 325 323 317 312 310 306 304 305 305 305 305 305 304 306 314 321 322 323 322 321 320 319 316 314 316 319
332 330 330 330 331 331 331 330 330 330 329 327 328 329 330 331 331 331 331 331 330 330 330 330 329 329 329 329 329 328 328 328 328 328 328 327 327 327 328 327 326 323 321 321 324 325 325 324 322 321 321 321 322 325 326 326 326 326 323 320 316 312 309 307 305 306 306 305 305 305 306 308 312 318 322 323 323 322 321 320 319 319 319 321 322
331 331 330 330 331 331 331 330 329 330 329 328 329 329 330 331 331 330 331 331 330 330 330 329 329 329 328 327 328 327 326 327 327 327 327 327 327 327 327 327 326 325 323 323 325 325 324 324 322 321 320 320 323 325 326 326 325 321 316 312 310 308 306 306 306 306 305 305 305 305 308 315 319 322 323 322 322 321 321 321 322 322 322 322 321
332 331 330 329 330 331 331 330 329 330 330 329 329 329 330 331 331 330 330 329 330 330 330 329 329 329 328 327 326 325 326 326 326 326 327 327 327 327 327 327 326 325 324 325 325 325 325 324 324 323 320 321 324 325 326 325 320 314 310 308 306 305 305 306 306 305 305 304 305 308 313 318 321 322 322 322 321 321 321 321 321 320 320 320 318
332 331 330 329 329 330 331 330 329 329 329 329 329 329 329 329 330 329 329 329 329 329 329 329 329 329 328 327 325 324 326 326 325 326 326 326 327 326 326 327 326 325 325 325 325 325 325 325 325 324 321 322 324 325 325 322 315 310 308 306 304 305 306 306 305 305 304 303 307 314 316 318 320 321 321 320 319 319 317 315 314 313 312 312 310
332 331 330 329 330 330 330 330 330 329 329 329 328 328 328 328 329 329 329 328 328 328 328 328 329 330 329 327 325 325 325 326 325 326 326 326 326 326 326 326 325 325 325 324 324 324 325 325 324 323 322 322 324 325 324 319 313 310 307 304 305 306 306 305 304 304 304 303 308 314 314 315 318 318 317 315 313 313 311 309 307 305 304 304 303
331 330 330 330 330 329 328 328 330 330 330 329 328 328 328 328 329 329 329 328 327 327 327 328 329 329 329 328 326 326 326 326 325 325 326 325 325 325 325 325 324 324 324 324 324 325 325 325 325 324 322 321 323 323 320 315 312 308 305 305 306 306 305 305 304 305 305 304 307 310 310 311 312 310 309 307 306 306 305 304 303 302 302 301 301
331 331 330 329 330 329 328 328 330 331 329 329 328 328 329 329 330 330 329 328 327 327 327 328 328 329 329 328 327 327 327 327 325 323 324 325 325 325 325 324 324 324 324 324 325 325 325 325 325 324 322 320 321 320 318 315 311 307 305 306 306 305 304 304 305 305 304 303 304 305 305 305 305 303 303 302 302 302 302 301 301 301 301 301 301
332 331 329 329 329 330 329 329 330 330 329 328 328 328 330 330 329 329 328 327 327 327 327 328 328 328 328 328 327 327 327 328 326 324 323 324 325 324 324 324 324 324 324 325 325 325 325 325 325 325 323 321 320 320 317 314 310 305 305 306 306 305 304 305 305 305 303 302 302 302 302 302 302 302 302 301 301 301 301 301 301 301 301 301 301
332 331 330 329 330 329 329 329 330 329 328 327 328 329 330 330 328 328 328 327 327 327 327 329 329 329 328 327 327 327 327 328 327 325 324 324 324 324 323 323 324 324 325 325 325 325 325 325 325 325 324 323 323 322 319 313 307 305 305 306 305 305 305 306 305 303 302 302 302 302 302 302 302 301 301 301 301 301 301 301 301 302 302 302 302
332 332 331 330 330 328 328 329 330 329 326 326 328 329 330 329 328 328 328 327 327 328 328 329 330 330 329 327 327 327 327 327 326 326 325 324 323 323 322 322 324 324 325 325 325 325 325 325 325 325 325 324 321 320 318 311 306 305 306 306 305 305 306 305 304 302 302 302 302 302 302 302 302 302 301 301 301 301 302 302 302 302 302 302 301
332 332 331 330 330 329 329 329 330 329 326 326 328 329 329 329 328 328 328 328 328 328 329 329 330 330 329 328 327 328 328 327 326 326 326 325 324 323 322 322 324 325 325 325 324 324 323 323 324 322 322 321 317 316 316 309 304 305 306 305 305 306 306 305 303 302 302 302 302 302 302 302 302 301 301 302 302 302 302 302 302 302 302 302 302
333 332 330 330 329 329 329 330 330 329 326 327 329 330 330 329 328 328 328 328 328 329 329 329 330 329 328 328 328 328 328 327 326 326 326 325 325 323 322 323 325 325 325 324 324 323 323 322 321 319 316 316 313 312 312 307 304 306 306 305 305 306 305 303 302 301 302 302 302 302 302 302 302 302 302 302 302 302 302 302 303 302 302 302 302
333 332 330 329 328 327 329 330 330 329 327 327 329 330 330 329 328 329 329 329 329 328 328 329 330 329 328 327 327 327 327 326 326 326 326 326 325 324 322 323 325 324 324 324 323 323 323 322 320 317 315 313 310 309 309 306 304 306 306 305 306 306 304 302 301 302 302 302 302 302 302 302 302 302 302 302 302 302 303 303 303 303 303 303 302
332 333 331 329 327 327 329 331 331 330 328 327 329 329 329 329 328 329 330 330 329 328 328 329 329 329 328 327 327 327 327 326 326 326 326 326 326 325 323 323 325 324 324 324 324 323 322 322 320 317 314 313 309 307 307 305 305 306 306 305 306 305 303 302 301 302 302 302 302 302 302 302 302 302 302 302 302 303 303 303 303 303 303 303 303
330 332 332 329 326 327 330 331 331 330 328 329 329 329 329 328 328 329 330 330 329 328 328 329 329 328 328 327 327 326 326 327 327 326 326 326 326 326 324 323 324 324 324 324 324 323 323 322 320 316 313 312 309 307 305 304 305 306 306 306 306 304 302 302 302 302 302 303 303 303 303 303 302 303 303 302 302 302 302 302 302 303 302 303 303
328 330 331 329 326 328 330 331 331 330 329 330 330 329 328 328 328 329 329 330 329 329 329 328 328 328 328 328 327 327 327 327 327 326 326 326 326 327 326 325 323 323 324 324 324 323 323 322 320 316 312 310 309 308 305 304 306 306 306 306 306 304 302 302 302 303 303 303 303 304 304 304 304 304 304 304 303 303 303 304 304 304 305 305 306
329 330 331 329 327 328 330 329 330 330 330 330 329 329 329 328 329 329 329 329 328 328 328 328 327 327 327 327 327 327 327 327 327 326 326 326 326 326 327 326 324 323 323 323 324 323 323 322 320 316 312 310 309 308 306 305 306 307 306 306 306 304 302 302 302 303 303 304 304 305 306 306 307 307 307 306 306 306 307 308 309 309 310 311 311
330 330 330 329 328 329 329 327 328 330 330 330 330 330 330 329 329 329 329 328 328 327 327 327 327 326 327 327 327 327 327 327 327 327 327 327 327 326 327 327 325 324 324 324 323 321 321 322 319 314 312 310 308 307 306 306 306 307 306 306 305 304 302 302 303 303 304 304 305 306 307 308 309 309 309 309 309 310 310 311 312 312 312 313 313
328 329 329 328 328 329 329 327 327 330 330 330 330 330 329 329 329 329 328 328 328 327 327 327 327 326 326 326 326 327 327 327 327 327 327 327 327 327 327 327 326 325 324 324 322 320 320 320 317 313 311 310 309 308 307 306 307 307 307 306 306 304 303 303 303 303 304 304 305 306 307 308 309 310 311 311 311 312 312 312 312 312 312 313 312
327 327 327 327 328 330 329 326 325 329 330 329 329 329 329 329 329 328 328 328 328 328 328 327 326 326 326 326 326 327 327 327 327 327 327 326 326 327 327 327 326 326 325 324 322 320 319 317 315 313 311 310 309 309 308 307 307 308 307 306 306 305 304 304 304 304 304 304 305 306 307 308 309 310 311 311 312 312 312 312 312 312 312 312 312
327 326 325 327 329 330 328 325 326 329 330 328 328 328 328 329 328 328 328 327 328 327 327 326 326 326 326 326 327 327 326 326 326 326 326 326 326 327 327 327 327 326 326 324 322 320 318 316 314 313 312 310 309 309 309 308 308 308 307 306 306 306 306 305 306 307 307 306 306 306 307 307 308 309 310 311 312 312 312 312 312 312 312 312 312
326 325 325 327 330 329 328 327 327 329 329 328 328 328 328 328 328 327 327 326 326 326 325 326 326 325 326 326 326 327 326 325 326 326 326 326 326 326 327 327 327 327 326 324 322 320 318 316 314 313 312 311 310 309 309 309 309 308 307 306 306 307 307 307 307 308 308 309 308 308 308 308 308 308 309 311 312 312 312 312 312 312 312 312 312
325 325 325 328 329 327 327 328 328 328 328 328 328 328 327 327 326 326 326 325 325 324 324 325 325 325 325 325 325 326 326 325 326 326 326 326 326 326 326 327 327 326 326 324 322 320 318 316 315 314 313 311 310 309 309 309 309 308 307 307 306 307 307 308 308 308 308 309 309 309 309 309 309 309 310 311 312 312 312 312 312 312 312 312 313
325 325 325 327 327 325 326 328 326 326 327 327 327 327 327 326 325 326 326 325 325 324 324 325 325 325 325 325 325 325 325 325 325 326 326 326 326 326 326 325 325 326 325 324 323 320 319 319 318 317 314 312 310 310 309 309 309 309 307 307 307 307 308 308 309 309 309 309 310 310 311 311 311 311 312 312 313 313 313 313 313 313 313 313 313
326 326 326 327 326 325 326 326 325 326 326 326 325 325 326 326 326 326 327 326 326 324 323 323 324 324 324 324 325 326 325 325 325 325 326 326 326 327 326 325 324 325 324 323 322 322 322 322 321 319 316 313 311 311 310 309 309 309 308 307 307 308 309 309 310 311 311 311 311 312 312 313 312 312 312 313 313 313 313 313 313 313 313 313 313
327 327 327 326 325 325 326 326 326 326 326 324 324 324 325 326 326 325 326 326 325 323 321 322 323 323 323 322 323 325 325 326 325 326 325 325 326 326 326 326 325 325 325 323 322 323 323 322 320 318 316 314 312 312 310 309 310 310 310 309 308 308 310 311 311 312 312 312 313 313 313 313 313 313 313 313 313 313 313 313 313 313 314 314 314
327 328 326 324 325 326 326 326 326 326 325 324 324 324 325 325 324 324 324 324 324 322 322 322 322 322 323 322 321 321 324 326 326 326 326 326 326 325 325 326 325 325 325 323 323 323 321 318 316 316 315 313 312 312 311 310 310 310 310 310 310 310 311 311 312 313 313 313 313 313 313 313 314 313 313 313 314 314 314 314 314 314 314 314 314
327 327 325 323 325 326 326 326 326 325 324 324 323 324 324 324 324 323 323 323 323 322 322 321 321 322 322 321 319 319 323 326 326 326 326 326 326 326 325 325 325 324 324 323 323 322 320 317 316 314 313 312 312 313 312 311 310 310 311 311 312 312 312 312 313 313 313 313 313 313 313 314 313 313 314 314 314 314 314 314 314 314 314 314 314
326 325 324 324 325 325 325 325 325 324 324 323 323 323 323 323 322 322 322 322 322 322 321 321 321 321 320 319 319 321 324 326 326 326 326 326 326 325 325 325 324 323 323 323 322 321 321 320 318 316 314 314 314 314 313 312 311 311 312 312 313 313 313 313 314 314 313 313 313 313 314 314 313 313 314 314 314 314 314 314 314 314 314 314 314
324 324 325 325 325 324 324 324 323 323 323 323 323 323 323 323 322 321 320 320 321 321 321 321 321 320 319 319 320 323 325 325 325 326 326 326 325 325 325 324 323 323 322 322 321 321 320 321 320 319 317 316 315 314 314 313 312 311 312 312 312 313 313 313 314 314 314 313 313 314 314 315 314 314 314 315 315 315 314 314 314 314 314 314 314
324 325 325 325 325 324 324 324 323 323 322 323 323 323 323 323 322 321 320 321 321 321 321 321 320 319 319 318 320 322 324 325 325 326 326 325 325 325 324 323 322 322 321 321 320 319 319 319 320 320 318 316 314 313 313 313 313 312 312 312 312 312 312 312 312 313 313 313 313 315 315 316 316 316 316 316 316 316 315 315 315 315 314 314 314
324 325 325 325 325 324 323 323 323 322 322 323 323 321 321 322 322 322 321 321 321 321 321 320 320 320 320 318 318 321 324 325 325 325 324 324 324 324 323 322 321 321 320 319 318 317 317 318 318 318 316 314 313 312 313 313 313 313 313 313 313 313 313 313 313 313 314 314 315 316 317 317 317 317 317 317 317 316 316 316 315 315 315 315 315
323 324 325 325 324 323 323 323 323 322 322 322 322 321 320 320 321 322 322 322 321 321 320 320 320 320 320 318 317 320 324 325 324 323 323 323 323 323 322 321 321 320 319 318 318 317 317 317 317 317 316 315 315 315 316 316 316 316 316 316 316 315 315 315 316 316 316 316 316 316 316 316 315 315 315 315 316 316 316 316 316 316 316 316 316
323 324 324 323 323 323 322 322 322 322 321 321 320 320 320 319 319 320 320 321 321 321 320 320 320 320 320 319 318 319 323 324 323 321 321 322 321 321 320 320 320 319 318 318 318 318 318 318 318 318 318 318 317 317 316 316 317 317 316 316 316 316 316 316 316 316 316 315 315 315 315 314 314 314 314 315 315 315 315 316 316 317 317 317 316
322 323 322 321 321 323 322 321 322 321 320 319 318 318 318 317 317 318 318 318 319 320 320 319 320 320 320 319 319 318 320 322 323 322 321 320 320 320 320 320 319 319 319 319 318 319 319 319 319 318 318 318 317 317 316 316 316 316 315 315 315 315 315 315 315 315 315 315 315 315 316 315 315 315 316 316 316 316 316 316 315 315 315 315 315
321 321 321 320 320 321 319 318 318 317 316 316 316 316 315 315 316 318 318 317 317 319 320 319 319 320 320 319 319 318 318 319 322 322 320 319 318 318 319 319 318 318 318 318 318 318 318 318 318 317 317 317 316 316 316 316 316 316 316 317 316 316 316 316 316 316 316 315 315 315 315 315 315 315 316 316 316 315 315 314 313 313 313 313 313
320 320 320 320 319 318 316 315 315 315 313 312 312 314 316 316 317 317 317 317 317 319 320 319 319 320 320 319 318 318 318 317 318 319 319 318 317 316 317 318 318 318 318 318 318 317 317 317 317 317 317 317 317 317 317 318 318 317 317 317 317 316 315 315 314 314 314 314 314 314 313 313 313 313 312 312 312 311 311 311 311 312 313 313 313
320 319 319 319 319 318 316 315 315 314 313 310 310 312 313 315 317 318 318 318 318 319 319 319 319 319 319 319 318 318 318 318 318 318 318 318 318 317 317 318 319 319 319 319 318 318 318 318 318 318 318 317 317 317 317 316 316 316 315 315 314 313 313 312 311 310 310 310 310 310 310 309 309 309 309 309 309 308 308 308 309 310 311 311 311
Wind_Speed
11 11 11 13 14 15 14 14 13 13 17 19 19 19 19 20 21 21 20 17 14 12 10 8 6 4 4 4 4 4 5 4 4 5 6 7 6 4 2 2 1 1 1 1 2 3 2 2 3 4 4 4 5 6 7 8 9 10 10 10 10 10 10 10 10 9 9 8 8 7 7 8 8 8 8 9 10 10 11 11 12 12 13 13 14
12 12 13 14 14 14 14 14 14 14 16 19 19 18 18 18 19 19 18 17 15 12 10 9 7 5 5 5 5 6 6 5 5 5 6 6 5 4 4 3 3 2 1 1 2 4 4 4 4 5 6 7 7 8 9 10 11 11 11 11 11 10 10 10 10 10 10 9 8 8 7 7 8 8 8 9 9 10 10 11 12 12 12 12 13
13 13 14 14 13 13 13 13 14 15 16 19 19 18 18 18 18 17 16 16 15 13 10 9 7 5 5 6 6 6 5 5 5 6 6 4 3 4 4 4 3 2 1 2 4 5 5 6 7 7 8 9 9 10 11 11 11 10 10 9 9 9 9 9 9 8 8 8 7 7 7 7 7 7 8 9 9 9 10 10 11 11 11 11 12
14 14 14 14 13 13 13 13 15 15 17 18 19 19 19 19 18 17 16 15 14 13 11 9 7 5 6 7 8 7 6 6 6 5 4 3 2 2 3 3 2 2 3 4 5 6 7 8 9 9 9 10 10 10 10 10 10 9 8 7 7 7 7 7 7 6 6 6 5 5 5 5 6 7 7 8 8 8 9 10 10 10 10 10 11
15 15 15 14 13 13 14 14 15 16 17 18 20 21 21 20 19 18 17 15 14 13 11 10 7 6 7 7 8 8 8 7 6 5 3 2 1 1 2 2 2 3 4 6 6 7 8 8 9 9 9 9 9 9 9 8 8 7 6 5 5 5 6 6 6 6 6 6 5 4 4 4 4 5 5 6 7 7 8 9 9 9 9 9 9
16 16 15 14 14 14 15 16 17 18 18 19 21 22 22 21 20 19 16 15 13 12 11 9 8 7 7 7 7 7 7 7 6 5 3 2 1 1 1 1 3 5 5 7 7 8 8 8 8 8 8 8 7 7 7 6 6 6 6 5 5 6 5 5 5 4 5 6 5 4 4 4 4 5 4 3 3 5 6 8 8 8 8 9 9
17 16 15 15 14 14 16 17 17 18 18 18 20 21 21 19 19 18 16 14 12 11 10 10 10 9 8 8 7 6 7 7 7 6 4 3 3 1 1 4 5 5 6 7 8 8 7 6 6 6 6 6 5 5 5 4 3 4 6 6 6 6 5 3 3 3 3 3 3 3 3 3 4 5 5 5 4 4 4 5 7 7 7 8 9
17 17 16 15 15 15 15 16 16 17 16 16 17 17 18 17 16 16 15 13 12 12 12 12 12 11 10 9 8 7 7 8 7 7 6 5 4 2 3 6 6 5 6 7 7 6 5 5 4 3 3 3 3 4 4 3 1 3 4 5 5 5 4 3 2 3 3 3 3 2 2 2 3 4 5 6 6 6 4 4 5 6 7 8 8
18 18 17 16 16 16 15 15 14 14 14 14 13 12 13 13 14 14 14 14 14 14 14 14 13 12 11 10 9 8 8 8 8 8 8 5 4 4 5 6 6 5 6 6 6 5 5 4 3 2 2 2 2 3 3 2 2 1 2 3 3 4 4 3 3 3 4 4 4 4 3 3 3 3 4 5 5 7 6 4 4 6 7 8 8
20 19 18 17 17 17 16 14 13 13 12 12 11 11 11 12 13 14 15 15 15 14 14 14 13 12 11 10 9 8 8 8 9 9 8 5 5 5 6 6 6 5 6 6 6 5 4 3 2 2 2 3 4 4 3 3 3 2 2 3 3 3 3 2 3 4 4 4 4 5 4 4 4 2 1 3 5 7 8 6 6 6 7 7 7
20 20 19 19 18 17 16 14 14 14 14 13 13 14 14 15 16 16 16 16 15 13 13 13 13 12 11 9 8 7 7 8 9 9 7 6 7 6 7 7 7 6 6 7 6 5 4 3 2 2 2 2 3 4 4 3 3 3 4 4 4 2 1 2 3 4 3 3 3 4 4 4 5 4 2 3 5 7 8 7 7 7 7 7 7
21 21 20 19 18 17 16 16 17 17 15 15 16 16 16 17 17 17 17 17 15 13 12 12 12 11 9 8 7 6 7 8 9 8 8 8 8 8 8 9 7 6 7 7 7 5 4 4 3 2 2 2 2 4 4 3 4 4 5 6 4 1 1 2 3 3 3 2 3 3 3 3 4 5 5 3 4 6 7 7 7 7 7 7 8
21 22 21 20 19 18 17 17 18 18 16 15 16 16 16 17 18 18 17 16 15 14 13 12 11 11 9 9 8 6 7 9 9 9 8 8 9 9 9 9 8 7 8 8 7 5 4 4 3 3 3 3 2 3 3 3 5 7 6 6 3 1 2 2 2 3 3 2 2 2 2 2 3 5 6 5 4 4 4 6 7 7 7 7 9
22 22 22 22 21 20 19 19 19 18 17 17 17 17 18 18 19 18 16 14 13 13 12 12 12 12 12 11 9 8 9 9 8 9 10 9 10 9 7 8 9 8 8 8 6 5 5 4 3 3 3 3 3 4 4 5 6 7 5 3 1 1 1 1 2 3 3 2 2 2 2 3 5 7 7 7 5 3 4 7 7 7 7 7 7
23 23 22 22 22 22 21 20 19 19 19 19 18 18 19 19 19 18 16 14 13 11 11 12 12 13 12 11 10 9 8 8 8 8 9 8 8 8 7 8 10 9 8 8 6 5 4 3 3 3 3 3 4 4 5 6 5 4 3 1 1 1 1 1 2 3 2 2 3 3 5 7 9 10 8 6 5 4 7 8 7 7 6 5 5
23 23 23 23 23 23 23 21 20 19 19 19 19 20 20 20 19 18 16 15 14 13 12 13 13 12 11 10 10 10 8 9 10 10 8 8 8 8 8 9 10 10 9 8 7 6 4 3 3 3 4 5 5 6 5 5 4 2 1 1 1 1 1 2 2 2 3 3 4 5 7 9 10 11 9 6 6 6 7 7 6 5 5 5 5
23 23 24 23 23 24 24 22 21 21 20 20 20 20 20 20 19 17 16 15 14 13 13 14 14 13 11 9 8 9 10 11 12 9 8 8 8 8 9 10 11 11 10 9 8 7 5 4 3 4 5 6 6 6 5 4 2 0 1 1 1 1 1 2 2 3 4 4 6 8 8 9 9 9 8 7 7 6 6 5 4 4 5 5 4
23 23 24 24 24 24 24 22 22 22 22 21 21 20 20 19 17 16 15 14 12 12 14 15 15 14 13 10 7 6 8 12 13 10 9 9 9 10 11 11 12 11 10 9 8 7 6 5 5 5 6 7 7 7 5 3 1 1 1 1 1 1 1 2 3 5 5 5 7 9 8 8 8 7 7 6 6 6 4 4 3 4 4 4 4
23 23 23 24 24 25 24 23 21 22 22 22 21 19 18 18 16 15 14 14 14 13 13 14 16 16 15 13 11 9 7 9 13 12 11 12 11 11 12 12 12 11 10 9 8 7 7 6 6 5 6 7 7 6 5 3 1 2 1 1 1 1 1 3 4 5 5 4 6 8 8 7 7 6 6 7 7 6 5 4 4 4 4 5 5
24 24 24 24 24 25 24 23 22 22 22 22 21 19 18 17 16 15 15 15 15 14 13 14 16 17 16 15 14 11 7 7 11 11 11 14 15 14 14 13 12 11 11 9 8 7 6 7 6 6 6 7 6 6 4 2 1 1 1 2 1 1 3 4 4 4 4 5 6 7 8 8 7 7 7 7 7 6 6 6 5 5 5 6 6
24 25 25 24 24 24 23 23 23 22 21 20 20 19 18 17 16 16 16 16 14 14 14 14 15 16 17 17 15 13 10 9 11 13 12 13 17 17 16 16 14 12 11 10 8 7 7 7 7 7 7 7 6 5 3 2 2 1 2 2 2 3 4 4 4 4 4 5 6 7 7 7 7 7 7 7 7 6 6 6 6 7 7 7 7
26 26 26 25 25 24 23 23 23 22 20 19 20 19 19 17 16 15 16 16 15 15 15 13 14 16 17 17 16 15 13 12 13 15 14 13 15 17 19 18 16 15 13 11 9 8 9 8 7 8 7 7 6 5 4 3 2 2 2 2 3 4 4 4 4 4 4 4 5 5 6 7 7 6 6 6 6 6 6 7 7 7 7 7 8
27 26 26 25 25 24 23 23 23 23 21 20 20 20 19 17 16 16 16 17 16 15 15 14 14 16 17 18 17 16 14 12 12 14 16 15 14 16 19 18 16 15 14 12 10 9 9 9 8 7 7 6 6 5 5 4 3 3 3 3 4 4 4 3 3 4 4 4 4 4 5 5 5 5 5 5 5 6 6 6 7 7 7 8 8
27 27 26 25 25 24 23 23 24 24 23 21 21 21 19 17 17 17 17 17 16 16 16 16 16 16 17 17 17 15 14 12 11 13 15 14 13 14 17 18 16 15 14 13 12 11 9 8 7 6 5 6 6 6 6 5 4 4 3 4 4 4 4 4 4 3 3 3 3 3 4 4 4 4 4 4 5 5 5 6 6 7 7 7 8
26 27 27 25 24 24 23 24 25 25 24 22 22 22 20 18 17 17 16 17 17 17 17 16 16 16 16 17 17 16 15 12 11 13 14 13 13 14 16 18 17 16 16 15 14 12 10 9 8 6 5 5 5 6 6 5 5 5 4 4 4 4 4 4 4 4 3 3 2 2 3 3 3 3 3 3 4 4 4 5 6 6 6 7 7
27 27 27 24 24 24 24 25 25 25 24 22 23 23 21 18 17 17 16 17 17 17 17 16 15 15 15 17 17 16 15 13 12 13 14 14 13 14 16 18 18 17 17 16 16 14 11 10 9 8 6 4 3 5 6 6 6 5 4 5 5 5 5 5 5 4 4 4 3 3 2 2 2 2 2 2 3 3 4 4 4 5 5 6 6
28 28 26 24 23 24 25 25 24 24 24 23 24 23 21 19 18 18 17 17 16 16 16 15 15 15 15 16 16 16 15 14 13 13 13 13 12 12 15 19 20 18 17 17 17 15 12 10 10 9 7 5 3 4 6 6 6 5 5 5 5 5 6 6 6 5 5 4 4 3 2 2 1 1 1 1 2 2 3 3 4 4 5 5 6
27 28 26 22 22 24 25 23 22 23 24 24 23 23 21 20 20 19 18 17 17 16 15 15 16 15 15 15 16 16 15 15 14 14 13 13 12 11 14 18 20 20 19 19 18 17 14 12 11 10 8 6 4 4 5 7 7 6 6 6 6 6 7 7 6 6 5 4 4 3 3 2 1 0 0 1 1 2 3 3 3 4 4 5 5
26 27 25 22 21 23 23 21 21 23 24 23 23 22 21 21 20 19 19 18 18 17 16 16 16 15 15 15 16 16 15 15 14 14 13 14 13 13 13 16 19 18 18 19 19 18 17 15 13 10 9 8 6 5 6 7 8 7 6 7 7 7 8 8 7 6 6 5 4 4 3 2 1 1 0 1 1 2 2 2 3 3 4 4 4
24 24 23 22 22 23 22 21 22 24 24 23 23 21 20 20 20 19 19 19 18 18 17 17 16 16 16 16 16 16 16 15 14 13 13 13 14 14 13 15 19 19 18 16 15 16 17 16 14 11 9 8 7 6 6 8 8 8 7 8 7 8 9 9 9 8 7 6 5 4 4 3 2 1 1 1 1 1 1 1 2 2 3 3 4
21 21 20 21 23 23 22 20 22 25 24 23 21 20 20 19 19 19 19 18 18 17 18 18 17 17 17 16 16 16 16 15 14 14 14 13 13 14 14 15 18 20 19 16 12 12 14 15 13 10 9 8 7 7 7 8 9 8 8 9 9 9 10 10 10 9 8 7 6 5 5 4 3 3 2 2 2 2 2 2 2 2 3 4 4
20 20 21 22 23 24 22 21 24 25 23 22 21 19 19 18 18 19 18 17 17 17 18 18 18 17 17 16 15 15 16 15 15 16 16 13 13 14 15 16 18 20 20 18 14 11 11 12 12 10 9 8 8 7 7 8 9 9 10 10 10 11 11 11 10 9 9 8 8 7 6 6 5 5 5 4 4 4 4 4 4 4 5 5 6
21 21 22 24 25 25 24 23 24 24 22 21 21 19 19 19 18 18 18 17 18 17 17 18 18 17 16 15 14 15 16 16 16 17 17 15 15 16 16 16 19 20 20 19 15 12 10 11 12 11 10 9 9 8 8 9 9 9 10 11 12 12 12 11 11 10 10 9 9 9 8 8 7 7 7 7 7 7 6 7 7 7 7 8 8
23 22 24 26 26 25 24 24 24 22 21 21 21 20 20 20 19 18 18 18 18 17 16 17 17 17 16 15 15 16 16 16 16 16 17 16 17 17 18 17 19 20 20 19 16 13 11 11 12 12 11 11 11 10 10 9 9 10 11 12 13 13 12 13 12 11 11 11 11 11 11 10 10 10 10 10 10 9 9 9 10 10 10 10 11
23 23 25 27 26 25 24 25 24 22 22 21 21 21 21 20 20 19 19 18 17 16 15 16 16 16 16 16 15 16 16 16 16 16 16 16 17 18 19 19 20 20 20 20 17 15 13 12 12 12 11 12 12 11 10 10 10 11 11 12 13 13 13 13 13 12 12 12 13 13 13 13 13 13 13 13 12 12 11 11 11 12 12 13 13
23 23 26 26 25 26 26 25 24 24 23 22 21 21 20 20 20 19 18 17 16 15 14 14 14 14 14 14 14 14 15 16 16 16 17 17 18 20 21 21 21 20 20 21 18 14 14 14 13 13 12 12 12 12 12 11 10 11 12 12 13 14 13 14 14 14 13 14 14 14 14 15 15 15 15 15 14 14 13 13 13 14 14 15 15
23 24 27 27 26 28 27 24 24 24 24 22 21 20 20 20 19 18 17 17 15 14 13 13 13 13 12 11 11 12 13 14 15 16 18 18 19 21 21 20 20 19 21 22 19 17 17 17 17 16 15 14 13 13 14 13 11 11 13 14 14 14 14 14 15 15 14 15 15 15 16 17 17 18 17 16 16 15 15 15 15 16 17 17 17
25 27 29 28 28 29 26 23 24 24 22 21 20 20 20 19 18 17 17 16 15 14 13 12 12 11 10 9 9 10 12 12 13 15 17 17 18 20 19 17 18 20 22 22 20 20 20 19 19 19 18 16 14 14 15 14 13 12 13 14 15 15 15 16 16 15 14 15 15 15 16 17 18 19 18 17 17 17 17 18 19 19 19 19 20
28 28 28 28 28 28 26 25 25 24 22 20 19 19 20 19 18 17 16 16 16 14 12 11 11 10 9 6 6 8 10 11 11 13 15 16 18 19 19 17 17 19 23 24 22 21 21 20 19 17 17 17 15 14 15 15 14 13 13 15 16 16 17 16 15 14 13 13 14 15 16 16 17 18 19 19 20 20 21 21 21 21 21 22 22
29 27 28 28 28 28 27 27 26 23 22 20 19 19 20 20 18 16 16 17 16 14 12 10 9 9 8 6 6 6 7 8 9 11 13 16 16 17 18 16 16 18 23 26 24 20 18 17 16 15 16 17 17 16 16 17 17 16 14 14 15 15 16 17 15 14 14 15 16 16 17 18 19 19 20 21 22 22 22 22 22 23 23 24 24
29 28 29 29 28 29 28 27 26 24 22 20 18 19 20 20 18 15 15 15 15 13 12 10 9 9 8 7 8 8 8 8 9 11 14 14 13 14 15 13 13 16 21 27 24 17 14 14 15 16 18 18 18 16 16 17 17 15 13 13 14 14 16 17 17 17 17 18 19 20 20 21 22 23 23 25 25 25 25 24 24 25 26 27 28
30 31 32 32 30 30 29 27 25 23 21 19 18 18 18 18 17 15 14 14 14 13 11 10 10 9 8 8 9 9 10 10 10 10 12 12 11 12 11 9 11 14 19 25 23 15 13 14 16 18 19 19 18 16 15 14 14 14 14 14 14 14 15 18 18 18 18 19 21 22 22 23 25 26 26 28 28 28 29 29 29 29 30 31 33
32 35 36 34 32 30 27 25 23 22 20 18 17 17 16 16 15 15 14 13 13 12 11 11 11 8 7 7 8 9 10 10 9 9 10 10 10 10 9 9 11 12 16 20 19 15 15 17 18 19 19 18 17 16 15 14 14 16 16 17 18 18 19 21 21 21 20 21 23 25 24 24 26 27 27 27 28 29 31 32 32 33 34 35 37
35 36 35 34 32 28 25 23 21 20 19 18 17 16 16 15 14 14 14 14 14 13 12 12 10 8 6 5 6 8 9 8 8 8 9 11 10 9 9 11 13 13 14 14 15 15 15 17 20 21 19 18 17 17 17 16 17 18 19 20 22 23 24 25 26 26 25 25 25 26 27 27 28 28 28 27 27 28 29 31 32 34 35 36 38
36 36 33 32 30 25 23 22 19 18 19 19 18 16 15 15 15 15 15 15 16 15 14 12 11 9 7 4 4 6 7 7 7 8 9 10 10 10 11 13 14 13 12 12 13 13 13 14 16 17 17 18 18 17 18 18 19 20 21 23 24 25 26 26 27 26 26 27 26 27 29 29 28 29 29 28 28 28 29 31 32 33 34 34 35
34 35 33 30 27 22 21 20 19 18 19 20 18 16 15 15 16 16 16 16 17 16 15 13 12 10 8 6 4 5 7 7 8 9 9 8 11 13 13 13 14 13 11 10 10 11 11 11 11 12 13 14 15 15 15 16 17 18 19 20 20 21 22 22 23 23 24 25 25 27 28 27 26 28 30 29 29 30 31 32 33 33 32 32 32
33 33 31 27 24 21 19 19 19 19 19 19 18 17 16 15 16 17 17 17 16 16 16 14 13 12 11 8 5 5 7 9 9 9 9 9 12 14 15 15 15 14 11 10 9 10 10 10 10 11 12 12 12 13 14 14 15 16 16 17 18 19 20 20 21 22 22 23 24 27 28 28 27 29 31 30 30 31 32 32 33 33 33 33 33
31 31 30 26 23 22 21 20 20 20 19 18 17 17 16 16 17 17 17 17 16 16 16 16 15 15 13 10 7 6 6 9 11 9 9 11 12 13 14 14 13 12 11 11 11 12 12 12 12 12 13 13 14 15 15 16 17 17 17 18 19 20 21 22 23 24 24 25 27 29 30 30 29 31 33 33 33 34 34 33 34 35 36 37 36
27 28 28 26 24 23 22 20 19 18 18 18 18 17 16 16 17 17 17 16 16 17 17 17 16 16 15 12 10 8 6 8 10 10 10 12 12 12 12 12 11 11 11 11 12 13 14 15 14 14 14 14 15 15 16 16 17 18 18 19 20 20 21 23 24 25 25 26 27 27 28 29 28 30 33 34 35 36 35 34 32 32 32 32 31
27 27 26 26 24 22 20 18 17 17 18 18 18 17 17 16 16 16 16 16 16 17 18 18 17 17 16 14 12 10 8 8 9 10 9 9 10 10 10 9 9 10 10 10 11 12 14 14 14 14 15 15 15 16 17 18 19 20 20 20 21 22 22 22 23 24 24 24 25 26 28 28 28 29 32 34 34 34 32 29 27 26 25 26 25
26 26 26 26 25 22 20 18 16 15 17 17 15 15 15 15 14 14 14 15 16 17 18 18 18 17 17 15 13 12 10 10 10 10 9 8 9 10 10 9 9 9 9 10 10 11 11 12 13 14 15 16 17 18 19 20 21 22 22 23 24 24 25 25 25 25 25 24 25 27 28 29 28 26 27 28 30 31 28 25 23 23 23 24 25
Wind_Direction
187 181 181 179 182 188 191 189 184 180 178 174 172 173 172 172 174 176 179 186 193 196 198 196 195 201 223 253 275 286 294 307 328 343 354 356 355 0 2 10 23 15 33 134 136 135 125 118 126 128 125 115 108 102 98 94 90 90 90 90 89 87 85 82 79 76 74 73 72 75 76 78 77 74 71 68 67 65 67 69 70 68 66 67 65
188 179 177 178 180 187 192 190 188 185 181 178 174 174 177 179 181 180 182 190 194 198 203 206 206 215 230 244 256 267 279 297 319 332 342 346 356 15 23 29 35 32 31 151 137 133 134 135 131 125 120 112 107 102 99 97 95 95 93 92 91 90 90 86 82 79 76 74 72 73 75 77 78 77 75 72 71 67 66 66 68 68 66 66 65
191 185 183 183 181 180 185 187 187 186 182 180 176 176 180 185 188 187 187 195 201 203 208 212 210 221 239 246 250 257 271 286 303 316 329 336 355 22 30 32 34 50 98 151 144 136 131 128 126 121 118 113 110 105 101 98 95 95 92 92 92 92 91 86 83 77 73 70 68 69 71 74 75 77 77 76 76 73 68 64 64 65 65 65 64
193 191 191 189 185 182 185 184 181 180 179 180 179 180 186 191 194 194 194 200 206 208 213 216 213 231 248 252 254 258 268 275 286 298 309 307 313 5 25 30 46 100 131 140 140 134 129 127 125 122 120 115 110 104 101 100 98 97 98 99 101 100 95 84 71 61 56 47 45 55 58 62 67 68 74 76 76 74 72 68 65 64 63 63 63
196 196 196 192 190 188 184 178 172 171 173 177 180 185 192 196 198 200 200 201 206 210 217 217 214 235 248 252 254 256 264 268 273 276 271 270 279 26 49 49 99 133 137 135 133 130 130 128 124 119 115 109 105 103 101 101 100 100 101 103 98 93 87 73 55 42 33 18 12 21 22 24 37 41 55 69 75 73 71 71 68 66 64 62 62
199 201 198 193 194 189 180 173 168 168 171 174 179 187 194 198 201 203 205 205 205 210 218 219 222 237 243 247 253 254 257 260 262 256 243 228 186 139 91 119 144 145 140 138 135 134 132 125 120 112 105 102 99 98 99 97 91 88 83 77 71 69 69 62 50 40 17 360 1 18 19 16 15 13 16 26 57 70 71 73 71 68 64 60 58
201 204 200 195 195 186 177 174 170 173 177 178 181 188 192 197 201 203 207 208 206 210 218 225 233 241 243 247 254 254 252 253 255 247 235 208 180 169 149 155 155 150 151 151 146 142 137 130 124 113 105 103 96 90 96 98 84 75 70 64 59 58 65 62 49 40 12 358 14 33 30 34 34 28 20 11 17 32 62 80 77 72 67 61 56
201 202 200 197 193 185 178 177 177 179 182 184 185 188 190 194 202 207 213 215 214 216 220 226 233 239 243 247 250 250 248 247 246 244 235 210 190 179 169 167 164 166 169 167 162 156 153 147 136 123 121 120 107 105 116 124 96 62 57 56 51 52 64 68 50 39 37 44 51 58 56 53 47 37 30 30 29 23 40 87 91 80 69 62 57
202 202 200 200 199 194 188 184 184 185 185 188 191 194 197 201 208 218 224 224 225 225 224 226 230 236 239 242 244 244 242 239 237 236 228 214 204 190 183 184 179 182 188 183 178 171 165 155 144 144 162 170 163 158 162 170 158 93 56 58 62 59 56 48 50 45 49 61 62 70 83 82 69 39 26 43 48 39 44 69 94 85 71 63 59
205 204 202 203 203 203 203 196 190 194 193 192 197 204 212 217 219 225 225 222 227 230 228 228 232 235 234 235 238 235 229 228 230 229 222 220 221 202 198 200 190 192 198 191 182 172 164 153 154 157 169 188 191 191 195 199 185 163 140 115 100 85 58 26 35 34 37 57 64 71 85 94 95 90 30 49 55 47 44 61 90 91 73 64 61
208 208 205 203 205 208 211 203 198 202 198 197 203 206 212 218 222 225 222 217 221 227 228 230 232 231 230 229 226 220 216 219 222 222 222 230 229 214 209 206 195 197 202 193 180 172 169 165 172 168 177 198 197 201 207 208 197 167 146 130 122 121 67 9 9 13 19 46 59 67 78 98 107 107 87 63 52 42 41 68 91 86 70 68 67
211 211 209 208 208 212 211 203 203 205 199 200 206 207 210 216 220 222 219 214 212 214 219 224 224 221 221 220 211 202 208 217 219 217 224 232 232 228 221 207 194 198 201 190 178 177 181 183 194 192 200 219 208 203 202 202 185 153 141 132 130 178 340 354 352 5 19 38 47 56 70 101 115 105 98 91 67 43 45 76 90 82 77 75 68
214 213 214 213 213 212 208 202 205 208 205 208 210 209 210 214 218 216 214 215 214 213 212 214 216 211 203 201 202 199 207 218 220 219 225 233 234 234 226 204 192 195 193 188 185 185 188 192 199 200 206 216 203 191 181 172 159 145 142 135 132 264 326 347 351 21 33 38 48 59 75 112 124 114 115 116 99 63 64 87 89 81 78 74 73
216 214 215 217 217 215 210 206 208 210 209 210 210 210 211 213 216 214 210 213 221 220 212 209 212 208 201 195 194 197 207 215 219 219 220 226 231 231 223 200 195 195 189 189 192 188 191 196 194 197 204 205 191 180 166 153 149 146 144 145 157 283 314 356 21 42 37 36 52 67 81 98 114 118 123 127 123 102 91 91 85 82 80 80 84
218 215 214 216 218 217 214 213 212 211 210 207 207 209 211 214 216 216 212 210 212 215 216 215 210 203 200 193 188 194 204 210 212 216 217 216 218 220 217 205 198 195 191 195 196 189 193 194 188 196 195 184 169 167 166 156 152 148 140 179 259 279 299 44 52 49 38 53 69 82 93 100 111 118 125 133 131 112 99 94 91 92 88 81 75
219 216 215 215 217 217 217 218 215 214 214 209 206 209 211 215 217 216 216 215 210 208 215 220 215 208 200 188 185 194 200 207 208 209 213 210 207 208 206 200 194 192 196 201 196 190 195 196 195 196 180 165 156 156 161 157 152 143 125 247 251 239 96 71 65 64 66 78 82 91 104 110 117 124 128 131 121 110 104 101 97 91 82 71 59
220 217 216 216 217 216 217 219 217 217 219 215 212 212 213 215 217 217 217 219 217 213 215 218 219 218 214 204 195 199 203 206 207 206 210 205 198 195 190 187 188 190 197 199 193 190 191 190 189 185 171 161 157 157 159 158 155 165 288 263 201 146 107 87 89 93 93 92 92 98 111 118 125 127 125 123 117 112 106 97 85 74 70 66 56
220 217 216 216 216 216 216 217 218 219 220 220 218 216 216 216 216 217 218 219 220 221 223 222 218 216 221 225 225 236 232 213 203 195 196 197 190 186 185 185 188 190 193 192 192 192 187 178 177 179 171 164 162 163 165 169 201 269 273 238 170 134 102 102 111 109 105 104 108 112 118 122 124 123 117 116 115 113 103 87 73 67 66 63 60
218 216 216 215 215 216 218 217 217 218 217 219 221 218 218 218 216 216 216 217 219 222 227 227 222 216 217 223 231 252 268 235 214 201 192 191 189 189 189 190 190 191 193 194 195 192 184 179 181 183 174 165 164 166 171 184 241 281 261 198 179 134 103 114 120 118 111 110 114 116 117 117 117 113 107 103 103 104 99 90 81 74 65 59 57
217 217 217 215 215 217 218 216 214 214 213 218 222 219 218 219 216 214 212 215 219 222 227 230 227 221 216 217 224 236 256 257 236 228 211 191 187 191 190 191 193 193 195 196 194 189 188 191 189 186 177 171 171 170 179 203 245 275 231 196 185 147 131 124 123 120 116 113 110 110 111 113 110 103 99 97 98 99 96 89 81 71 62 56 52
216 217 217 216 216 216 216 214 211 212 213 219 223 220 217 219 217 216 214 212 216 222 228 232 231 226 222 220 221 225 238 252 239 237 233 203 192 192 189 190 194 196 197 193 189 188 193 199 194 189 187 182 182 182 188 215 235 233 203 193 185 162 147 135 130 127 119 112 109 109 109 108 105 101 100 99 97 95 88 83 77 70 65 60 56
215 215 216 217 216 215 215 213 211 212 214 220 225 222 218 220 222 221 219 214 212 219 224 229 230 228 229 228 224 220 227 240 233 228 230 221 207 198 192 192 193 193 193 189 192 195 192 198 198 194 195 195 202 212 215 223 224 197 190 195 184 172 160 147 141 132 120 110 105 105 102 98 97 95 95 94 89 86 82 78 75 70 65 60 56
213 215 216 216 216 216 215 213 211 213 216 220 226 226 220 220 223 221 219 216 212 215 219 221 224 227 231 232 227 224 228 240 243 232 226 225 219 206 197 195 194 194 192 188 195 203 199 198 195 191 198 215 234 240 228 222 212 193 190 193 185 180 174 162 151 134 120 111 100 94 89 86 86 85 83 82 80 79 77 74 71 65 60 55 51
212 215 217 215 216 218 216 215 213 214 217 219 222 224 221 220 223 220 218 217 215 216 218 218 219 222 229 231 228 228 232 246 257 248 235 230 230 219 203 194 192 194 194 193 195 200 201 196 189 190 204 228 246 243 227 220 206 192 192 195 192 192 189 176 161 144 127 120 105 94 89 84 83 80 77 78 77 74 71 66 63 58 53 50 47
219 216 217 216 216 217 217 217 215 215 217 218 218 218 217 218 222 220 217 216 217 219 220 221 222 222 224 228 228 227 231 243 252 247 240 233 231 226 207 193 193 195 194 197 200 198 196 192 188 190 196 216 237 234 226 221 203 192 197 201 199 200 194 183 171 161 149 141 128 108 98 88 81 76 72 72 68 65 62 58 56 54 51 47 44
230 220 217 217 218 218 219 218 216 216 217 216 214 213 212 215 219 220 218 215 218 221 221 223 227 227 224 225 227 229 232 240 241 239 240 235 229 225 208 193 193 199 199 199 206 208 202 197 195 192 191 201 228 232 226 221 207 197 204 208 209 206 194 187 183 176 167 160 151 133 112 93 80 70 65 59 56 52 52 52 53 50 47 43 38
238 229 221 218 220 222 221 218 213 215 217 214 212 211 210 212 214 216 217 214 215 217 219 223 228 229 224 223 227 229 231 235 233 233 236 234 233 231 216 200 192 197 205 208 212 217 216 213 208 202 199 202 216 225 222 220 213 207 211 215 215 209 197 192 189 184 177 170 162 149 133 122 111 83 46 35 32 31 35 37 38 38 37 36 33
241 237 228 221 224 227 225 219 212 214 214 211 211 210 209 210 210 212 213 211 210 213 216 220 226 226 222 222 225 225 229 234 230 228 228 228 231 234 230 220 206 198 203 212 219 222 221 221 219 212 205 203 209 216 215 216 216 214 215 218 219 211 202 197 193 188 185 177 170 164 155 154 152 141 348 2 3 8 17 21 23 28 29 30 27
240 237 230 225 228 229 226 222 216 212 208 208 210 209 208 209 208 209 210 208 208 212 216 220 224 223 220 220 222 221 226 232 229 224 224 225 227 229 233 235 228 216 209 215 224 228 224 220 218 215 209 205 208 214 218 217 216 217 218 221 221 211 202 201 199 195 193 189 182 177 170 169 176 189 258 328 349 1 11 14 17 24 26 26 22
239 234 228 229 233 229 225 224 220 210 204 206 208 205 206 207 206 207 208 207 208 213 216 219 222 221 217 218 220 221 223 228 228 224 225 225 224 228 235 237 235 234 233 235 239 237 231 221 213 209 209 213 215 215 220 220 217 217 218 220 222 214 204 205 207 205 201 199 195 190 188 189 198 216 242 278 310 333 347 354 359 2 6 5 0
236 234 231 231 233 229 222 221 219 208 200 202 202 201 202 203 204 207 206 205 209 214 215 216 218 219 218 218 219 219 219 222 227 227 227 225 224 229 236 234 233 237 243 249 256 253 239 222 209 203 201 211 222 221 219 220 220 220 218 219 223 218 210 209 213 214 209 207 207 208 210 212 220 230 236 247 255 257 267 287 304 313 325 329 329
228 228 230 230 228 224 216 214 214 205 195 197 199 199 202 202 204 207 207 208 211 214 215 214 215 218 218 218 218 217 217 222 228 229 228 227 229 230 231 231 231 233 237 241 254 270 253 220 205 202 198 203 216 222 222 223 223 225 221 219 222 223 219 217 219 221 218 218 220 222 225 227 232 235 235 239 243 246 256 269 282 291 299 306 310
223 222 226 227 224 218 211 209 211 204 196 197 199 200 201 200 202 206 208 211 212 211 213 213 215 217 217 216 215 215 219 224 226 228 227 227 230 230 228 227 227 231 234 233 242 262 254 219 204 203 204 208 214 221 228 232 232 233 229 222 221 223 224 224 226 227 228 230 231 233 235 238 241 242 242 244 247 253 261 268 277 285 290 297 302
219 222 225 225 218 211 208 207 206 204 200 200 200 200 200 198 199 204 208 211 212 212 212 212 213 215 217 218 218 219 222 223 224 226 227 228 230 231 229 226 225 229 230 227 233 252 252 226 211 208 208 214 221 225 232 239 240 238 237 232 228 228 228 231 234 235 236 237 238 241 243 245 246 247 247 248 251 255 262 269 277 283 289 295 299
216 220 224 221 212 206 207 206 204 204 204 204 204 201 199 199 200 202 206 209 211 212 210 209 210 212 216 217 218 219 220 221 223 227 230 231 232 233 231 227 224 227 228 224 230 243 247 236 227 222 216 216 224 229 235 243 242 237 237 237 237 236 237 240 243 244 245 246 246 247 248 249 250 250 250 250 253 257 262 269 276 284 289 294 297
214 214 216 213 209 208 209 206 203 204 203 203 205 201 199 200 200 200 202 203 205 208 208 207 207 210 217 218 215 216 217 218 222 227 231 234 235 234 232 227 223 222 223 225 228 233 241 244 242 241 237 229 229 232 237 242 243 238 234 234 237 240 242 247 250 251 252 254 253 253 253 253 253 252 251 252 253 257 262 268 275 280 285 289 292
210 208 207 206 209 210 207 204 203 202 200 201 202 201 199 199 199 199 199 197 198 199 198 201 206 212 218 221 219 219 220 220 222 224 228 233 238 239 235 229 226 221 217 222 227 230 239 247 249 249 247 241 236 236 238 242 247 244 236 232 234 237 240 245 248 249 249 251 253 255 258 260 259 256 254 254 256 258 262 268 273 277 281 285 287
206 202 201 202 205 205 203 202 200 195 194 196 198 197 196 195 195 197 197 193 190 187 186 193 200 202 206 213 219 223 224 225 224 224 227 232 237 241 238 233 231 226 218 218 222 227 237 248 251 248 247 246 245 243 240 241 248 250 243 238 237 237 238 241 244 247 247 248 253 258 263 267 265 260 257 257 259 260 264 269 273 277 279 282 285
204 197 194 195 198 199 199 198 193 190 189 188 188 189 190 190 191 192 191 186 182 180 181 182 185 187 191 202 219 224 223 226 227 225 228 231 234 239 241 237 235 231 224 219 219 227 240 247 244 242 244 247 248 248 242 239 244 248 245 242 240 240 243 247 249 249 249 253 259 263 267 270 268 263 259 259 261 262 266 271 274 277 279 282 285
199 195 191 192 194 195 195 192 188 187 185 181 179 181 181 181 182 182 182 182 182 182 179 177 182 189 197 215 238 232 219 220 221 220 228 233 234 238 241 238 237 236 227 219 218 230 240 238 233 235 242 245 246 247 242 236 239 244 243 244 246 246 249 252 254 251 253 260 266 268 270 270 271 270 267 267 269 272 273 275 277 279 282 284 285
194 193 187 186 189 191 190 187 185 183 181 177 175 176 176 176 177 177 179 184 186 186 185 184 190 195 206 232 245 230 209 207 210 217 228 233 233 238 241 235 234 235 225 215 217 230 236 230 232 237 240 243 246 247 246 244 245 247 246 249 254 254 254 254 255 254 258 264 268 270 272 272 273 273 272 272 275 277 277 278 279 281 283 284 284
192 186 181 180 182 184 184 182 180 178 178 178 176 177 178 179 181 182 184 187 188 189 191 191 194 203 217 234 238 222 206 203 207 217 226 227 227 236 243 234 227 228 221 213 216 233 244 238 239 240 238 242 245 246 251 256 254 249 247 252 258 261 261 262 264 264 265 269 272 275 278 278 277 276 275 277 279 279 278 279 281 282 282 282 282
188 183 182 182 178 178 180 177 176 175 177 179 179 183 186 186 188 188 188 188 187 190 196 196 201 214 221 225 225 216 209 206 207 215 223 224 227 234 236 226 215 210 209 213 223 242 249 243 239 237 239 245 248 248 252 258 257 255 255 260 265 267 267 269 272 273 273 277 281 283 282 282 282 281 280 280 281 282 281 281 282 282 282 282 282
185 185 187 183 176 177 179 176 175 177 179 181 183 189 193 194 196 196 194 192 188 189 195 198 205 214 217 222 222 216 215 213 212 214 218 219 221 221 217 209 199 194 201 219 235 244 242 240 240 239 243 251 253 252 253 257 260 261 263 265 268 271 272 273 274 276 280 283 284 283 281 280 282 282 280 279 281 282 282 282 281 282 282 283 282
182 182 182 180 177 177 178 177 177 178 182 187 188 192 197 199 200 199 197 196 192 191 193 197 202 208 212 224 227 218 214 213 211 207 207 211 208 197 194 193 189 193 208 225 236 235 231 236 241 243 247 250 251 251 252 255 256 257 259 261 264 268 270 272 273 276 279 281 282 282 282 282 283 284 283 283 283 282 281 281 281 281 282 281 281
178 175 173 175 177 175 175 178 180 182 186 191 192 195 198 200 201 200 198 195 194 195 196 199 203 208 211 214 213 210 205 201 199 191 185 188 186 181 183 187 188 194 200 206 216 223 224 227 231 234 237 239 240 242 246 250 252 254 256 258 260 262 266 269 272 273 273 275 279 283 284 285 286 286 286 287 286 283 282 281 281 281 281 282 282
174 170 169 174 175 173 177 180 181 185 189 193 197 200 201 203 204 203 203 202 200 200 199 200 204 208 211 208 196 198 203 198 192 182 175 173 170 171 179 185 190 195 196 192 196 202 207 215 219 223 229 232 235 238 242 247 250 253 257 260 262 264 266 268 270 271 272 275 280 284 287 289 290 288 287 287 286 285 284 284 284 284 285 286 287
170 168 170 176 177 176 179 181 185 191 193 196 202 205 206 208 206 205 206 208 209 206 202 203 205 208 209 208 198 197 205 201 196 190 184 181 179 184 192 195 198 207 211 213 217 220 225 231 234 234 237 239 241 244 247 250 252 255 258 261 262 264 266 269 271 273 275 279 282 285 287 289 288 287 286 287 286 286 286 286 286 286 286 286 286
169 168 169 173 175 176 178 182 190 196 197 199 201 203 205 208 208 207 208 210 212 210 206 204 204 206 209 209 204 201 203 201 200 201 200 194 192 198 205 205 203 207 212 219 227 233 238 243 246 249 251 253 254 257 259 261 263 265 267 269 270 271 273 275 276 276 278 280 282 284 286 288 288 288 288 289 288 288 288 288 287 285 283 282 283
171 171 171 172 173 175 178 182 188 196 199 198 196 198 203 205 208 210 210 211 211 209 206 203 201 204 209 209 205 205 205 199 195 198 203 202 198 201 208 210 207 209 215 222 228 235 240 245 250 256 260 265 269 272 274 276 277 277 279 280 281 283 285 285 285 285 286 286 286 287 288 289 290 291 291 291 290 289 289 290 288 285 282 283 285
176 176 176 178 180 182 184 186 187 193 197 193 187 190 197 201 204 205 204 205 206 204 204 201 198 201 206 208 208 209 209 206 202 199 201 203 203 208 215 221 223 222 224 228 233 241 248 255 261 265 269 273 276 278 281 282 284 285 286 287 288 289 290 291 292 293 293 292 290 289 289 289 290 292 294 296 296 294 294 295 293 288 285 285 286